Location: Unspecified
(17.6330°N, 0.0000°E)
Time: 17:09:43
(UTC+00:00)

S-56A Canister/Altair - Pass Details

Date: 25 June 2019
Orbit: 633 x 2499 km, 38.9° (Epoch: 17 August)

Event Time Altitude Azimuth Distance (km) Brightness Sun altitude
Rises 15:56:43 0° 280° (W) 5,435 12.9 35.2°
Reaches altitude 10° 16:02:02 10° 296° (WNW) 4,067 12.6 34.0°
Maximum altitude 16:08:58 20° 338° (NNW) 2,821 11.2 32.5°
Drops below altitude 10° 16:14:21 10° 23° (NNE) 3,048 10.6 31.2°
Sets 16:17:36 0° 41° (NE) 3,726 10.8 30.5°
